Location: Clanezzo
(45.7500°N, 9.6000°E)
Time: 04:15:59
(UTC+00:00)

Cosmos 2084 - Pass Details

Date: 12 May 2021
Orbit: 542 x 640 km, 62.8° (Epoch: 18 June)

Event Time Altitude Azimuth Distance (km) Brightness Sun altitude
Rises 20:08:30 0° 226° (SW) 2,707 6.9 -12.9°
Reaches altitude 10° 20:10:41 10° 229° (SW) 1,826 6.0 -13.2°
Maximum altitude 20:14:46 65° 312° (NW) 622 3.8 -13.7°
Drops below altitude 10° 20:18:59 10° 35° (NE) 1,888 6.2 -14.2°
Sets 20:21:17 0° 38° (NE) 2,807 7.0 -14.4°
